| time (UTC) | temp C | wind direction | speed KPH | gust KPH | rain 1hr cm | rain 24hr cm | rain mn cm | humidity % | barometer mb |
| 20260508102006 | 10 | 90 | 4.8 | 12.9 | 0.00 | 2.64 | 2.62 | 17 | 1031.6 |
| 20260508101005 | 10 | 90 | 4.8 | 9.7 | 0.00 | 2.64 | 2.62 | 17 | 1031.6 |
| 20260508095007 | 11 | 45 | 3.2 | 11.3 | 0.00 | 2.64 | 2.62 | 17 | 1031.6 |
| 20260508094005 | 10 | 90 | 1.6 | 12.9 | 0.00 | 2.64 | 2.62 | 17 | 1031.5 |
| 20260508091006 | 10 | 45 | 6.4 | 11.3 | 0.00 | 2.64 | 2.62 | 17 | 1031.1 |
| 20260508085005 | 10 | 0 | 4.8 | 11.3 | 0.00 | 2.64 | 2.62 | 17 | 1031.2 |
| 20260508084007 | 11 | 90 | 1.6 | 9.7 | 0.00 | 2.64 | 2.62 | 17 | 1031.1 |
| 20260508083006 | 11 | 135 | 3.2 | 8.0 | 0.00 | 2.64 | 2.62 | 17 | 1031.0 |
| 20260508082006 | 11 | 135 | 3.2 | 9.7 | 0.00 | 2.64 | 2.62 | 17 | 1031.2 |
| 20260508081006 | 11 | 180 | 3.2 | 8.0 | 0.00 | 2.64 | 2.62 | 17 | 1031.0 |
| 20260508075006 | 11 | 270 | 1.6 | 9.7 | 0.00 | 2.64 | 2.62 | 17 | 1031.0 |
| 20260508073006 | 11 | 90 | 1.6 | 8.0 | 0.00 | 2.64 | 2.62 | 17 | 1030.5 |
| 20260508072006 | 10 | 45 | 1.6 | 9.7 | 0.00 | 2.64 | 2.62 | 17 | 1030.6 |
| 20260508071006 | 10 | 45 | 3.2 | 16.1 | 0.00 | 2.64 | 2.62 | 17 | 1030.3 |
| 20260508065006 | 9 | 90 | 4.8 | 9.7 | 0.00 | 2.64 | 2.62 | 17 | 1030.5 |
| 20260508064005 | 10 | 45 | 1.6 | 8.0 | 0.00 | 2.64 | 2.62 | 17 | 1030.5 |
| 20260508063006 | 9 | 45 | 4.8 | 9.7 | 0.00 | 2.64 | 2.62 | 17 | 1030.4 |
| 20260508062006 | 10 | 0 | 1.6 | 8.0 | 0.00 | 2.64 | 2.62 | 17 | 1030.3 |
| 20260508061006 | 9 | 0 | 1.6 | 12.9 | 0.00 | 2.64 | 2.62 | 17 | 1030.2 |
| 20260508055006 | 9 | 45 | 3.2 | 9.7 | 0.00 | 2.64 | 2.62 | 17 | 1030.0 |
| 20260508053006 | 9 | 0 | 1.6 | 4.8 | 0.00 | 2.64 | 2.62 | 17 | 1029.7 |
| 20260508052005 | 9 | 45 | 1.6 | 4.8 | 1.27 | 2.64 | 2.62 | 17 | 1029.9 |
| 20260508045006 | 8 | 0 | 3.2 | 8.0 | 1.27 | 2.64 | 2.62 | 17 | 1029.4 |
| 20260508044006 | 8 | 45 | 0.0 | 12.9 | 1.27 | 2.64 | 2.62 | 17 | 1029.3 |
| 20260508043006 | 6 | 0 | 4.8 | 12.9 | 1.27 | 2.64 | 2.62 | 17 | 997.0 |
| 20260508042021 | 7 | 90 | 3.2 | 8.0 | 1.27 | 2.64 | 2.62 | 17 | 1029.1 |
| 20260508041021 | 7 | 90 | 1.6 | 1.6 | 1.27 | 2.64 | 2.62 | 17 | 1029.1 |
| 20260508035006 | 4 | 225 | 0.0 | 1.6 | 1.27 | 2.64 | 2.62 | 17 | 1028.8 |
| 20260508034005 | 2 | 270 | 0.0 | 9.7 | 1.27 | 2.64 | 2.62 | 17 | 1028.6 |
| 20260508033006 | 7 | 45 | 1.6 | 9.7 | 1.27 | 2.64 | 2.62 | 17 | 996.4 |
| 20260508032006 | 0 | 225 | 0.0 | 0.0 | 0.00 | 2.64 | 2.62 | 17 | 1028.5 |
| 20260508031005 | 0 | 270 | 0.0 | 0.0 | 0.00 | 2.64 | 2.62 | 17 | 1028.4 |
| 20260508025006 | -1 | 180 | 1.6 | 1.6 | 0.00 | 2.64 | 2.62 | 17 | 1028.3 |
| 20260508024006 | -1 | 270 | 0.0 | 1.6 | 0.00 | 2.64 | 2.62 | 17 | 1028.4 |
| 20260508023006 | -2 | 270 | 1.6 | 1.6 | 0.00 | 2.64 | 2.62 | 17 | 1028.0 |
| 20260508022006 | -2 | 225 | 0.0 | 1.6 | 0.00 | 2.64 | 2.62 | 17 | 1028.1 |
| 20260508021006 | -2 | 270 | 0.0 | 0.0 | 0.00 | 2.64 | 2.62 | 17 | 1027.9 |
| 20260508015005 | -2 | 225 | 1.6 | 3.2 | 0.00 | 2.64 | 2.62 | 17 | 1027.8 |
| 20260508014007 | -2 | 270 | 0.0 | 0.0 | 0.00 | 2.64 | 2.62 | 17 | 1027.5 |
| 20260508011006 | -2 | 270 | 0.0 | 1.6 | 0.00 | 2.64 | 2.62 | 17 | 1027.2 |
| 20260508005005 | -2 | 225 | 1.6 | 3.2 | 0.00 | 2.64 | 2.62 | 17 | 1027.0 |
| 20260508004005 | -2 | 270 | 1.6 | 3.2 | 0.00 | 2.64 | 2.62 | 17 | 1027.0 |
| 20260508002006 | -2 | 225 | 1.6 | 3.2 | 0.00 | 2.64 | 2.62 | 17 | 1026.7 |
| 20260508001006 | -2 | 225 | 1.6 | 1.6 | 0.00 | 2.64 | 2.62 | 17 | 1026.7 |
| 20260507235006 | -2 | 225 | 1.6 | 1.6 | 0.00 | 2.64 | 2.62 | 17 | 1026.4 |
| 20260507234006 | -2 | 270 | 1.6 | 1.6 | 0.00 | 2.64 | 2.62 | 17 | 1026.4 |
| 20260507233005 | -2 | 225 | 0.0 | 1.6 | 0.00 | 2.64 | 2.62 | 17 | 1026.4 |
| 20260507232005 | -2 | 180 | 1.6 | 1.6 | 0.00 | 2.64 | 2.62 | 17 | 1026.1 |
| 20260507231006 | -1 | 225 | 1.6 | 9.7 | 0.00 | 2.64 | 2.62 | 17 | 1025.9 |
| 20260507225007 | -1 | 270 | 0.0 | 1.6 | 0.00 | 2.64 | 2.62 | 17 | 1025.8 |
| 20260507224006 | -1 | 270 | 1.6 | 1.6 | 0.00 | 2.64 | 2.62 | 17 | 1025.6 |
| 20260507223005 | -1 | 270 | 1.6 | 1.6 | 0.00 | 2.64 | 2.62 | 17 | 1025.5 |
| 20260507221005 | -1 | 270 | 1.6 | 11.3 | 0.00 | 2.64 | 2.62 | 17 | 1025.4 |
| 20260507215005 | -1 | 225 | 0.0 | 1.6 | 0.00 | 2.64 | 2.62 | 17 | 1025.3 |
| 20260507214005 | -1 | 270 | 0.0 | 3.2 | 0.00 | 2.64 | 2.62 | 17 | 1025.3 |
| 20260507213006 | -1 | 225 | 0.0 | 0.0 | 0.00 | 2.64 | 2.62 | 17 | 1025.1 |
| 20260507212006 | -1 | 270 | 0.0 | 0.0 | 1.27 | 2.64 | 2.62 | 17 | 1025.0 |
| 20260507211006 | -1 | 225 | 0.0 | 19.3 | 1.27 | 2.64 | 2.62 | 17 | 1024.6 |
| 20260507205005 | -1 | 225 | 0.0 | 1.6 | 1.27 | 2.64 | 2.62 | 17 | 1024.5 |
| 20260507204006 | 0 | 225 | 0.0 | 16.1 | 1.27 | 2.64 | 2.62 | 17 | 1024.4 |
| 20260507203005 | 5 | 270 | 3.2 | 16.1 | 1.27 | 2.64 | 2.62 | 17 | 990.3 |
| 20260507202006 | 0 | 225 | 0.0 | 1.6 | 1.27 | 2.64 | 2.62 | 17 | 1024.2 |
| 20260507201005 | 0 | 180 | 1.6 | 1.6 | 1.27 | 2.64 | 2.62 | 17 | 1024.1 |
| 20260507195005 | 1 | 225 | 1.6 | 4.8 | 1.27 | 2.64 | 2.62 | 17 | 1024.0 |
| 20260507194006 | 2 | 180 | 1.6 | 16.1 | 1.27 | 2.64 | 2.62 | 17 | 1023.9 |
| 20260507193006 | 5 | 225 | 3.2 | 16.1 | 1.27 | 2.64 | 2.62 | 17 | 989.6 |
| 20260507192007 | 2 | 225 | 0.0 | 1.6 | 0.00 | 2.62 | 2.62 | 17 | 1023.8 |
| 20260507191006 | 3 | 45 | 1.6 | 3.2 | 0.00 | 2.62 | 2.62 | 17 | 1023.7 |
| 20260507184005 | 4 | 225 | 0.0 | 4.8 | 0.00 | 2.62 | 2.62 | 17 | 1023.6 |
| 20260507183007 | 5 | 90 | 1.6 | 3.2 | 0.00 | 2.62 | 2.62 | 17 | 1023.7 |
| 20260507182006 | 5 | 135 | 1.6 | 4.8 | 0.00 | 2.62 | 2.62 | 17 | 1023.6 |
| 20260507181006 | 6 | 90 | 1.6 | 9.7 | 0.00 | 2.62 | 2.62 | 17 | 1023.4 |
| 20260507175005 | 6 | 45 | 4.8 | 12.9 | 0.00 | 2.62 | 2.62 | 17 | 1023.4 |
| 20260507174006 | 6 | 90 | 4.8 | 12.9 | 0.00 | 2.62 | 2.62 | 17 | 1023.3 |
| 20260507173006 | 6 | 90 | 8.0 | 14.5 | 0.00 | 2.62 | 2.62 | 17 | 1023.1 |
| 20260507171005 | 6 | 202 | 3.2 | 9.7 | 0.00 | 2.62 | 2.62 | 17 | 1023.3 |
| 20260507165006 | 7 | 90 | 6.4 | 12.9 | 0.00 | 2.62 | 2.62 | 17 | 1023.0 |
| 20260507164005 | 8 | 45 | 4.8 | 12.9 | 0.00 | 2.62 | 2.62 | 17 | 1023.1 |
| 20260507163006 | 7 | 90 | 8.0 | 12.9 | 0.00 | 2.62 | 2.62 | 17 | 1023.0 |
| 20260507162006 | 7 | 45 | 4.8 | 12.9 | 0.00 | 2.62 | 2.62 | 17 | 1022.7 |
| 20260507161006 | 7 | 90 | 4.8 | 12.9 | 0.00 | 2.62 | 2.62 | 17 | 1022.6 |
| 20260507155006 | 7 | 90 | 4.8 | 12.9 | 0.00 | 2.62 | 2.62 | 17 | 1022.7 |
| 20260507154008 | 7 | 45 | 8.0 | 16.1 | 0.00 | 2.62 | 2.62 | 17 | 1022.5 |
| 20260507153005 | 8 | 90 | 6.4 | 12.9 | 0.00 | 2.62 | 2.62 | 17 | 1022.2 |
| 20260507152005 | 7 | 90 | 6.4 | 14.5 | 1.27 | 2.62 | 2.62 | 17 | 1022.3 |
| 20260507151006 | 7 | 45 | 9.7 | 14.5 | 1.27 | 2.62 | 2.62 | 17 | 1022.2 |
| 20260507145005 | 7 | 45 | 8.0 | 16.1 | 1.27 | 2.62 | 2.62 | 17 | 1022.0 |
| 20260507144005 | 6 | 90 | 6.4 | 16.1 | 1.27 | 2.62 | 2.62 | 17 | 1022.2 |
| 20260507142006 | 7 | 90 | 8.0 | 16.1 | 0.00 | 2.62 | 2.62 | 17 | 1022.0 |
| 20260507141007 | 6 | 90 | 8.0 | 16.1 | 0.00 | 2.62 | 2.62 | 17 | 1022.0 |
| 20260507135006 | 7 | 45 | 8.0 | 16.1 | 0.00 | 2.62 | 2.62 | 17 | 1022.2 |
| 20260507134006 | 7 | 135 | 8.0 | 19.3 | 0.00 | 2.62 | 2.62 | 17 | 1022.0 |
| 20260507133006 | 8 | 90 | 4.8 | 16.1 | 0.00 | 2.62 | 2.62 | 17 | 1022.0 |
| 20260507132007 | 7 | 90 | 4.8 | 12.9 | 0.00 | 2.62 | 2.62 | 17 | 1022.1 |
| 20260507131006 | 7 | 90 | 6.4 | 12.9 | 0.00 | 2.62 | 2.62 | 17 | 1022.3 |
| 20260507125005 | 6 | 135 | 8.0 | 16.1 | 0.00 | 2.64 | 2.62 | 17 | 1022.1 |
| 20260507124006 | 6 | 135 | 8.0 | 16.1 | 0.00 | 2.64 | 2.62 | 17 | 1022.2 |
| 20260507123005 | 5 | 45 | 4.8 | 14.5 | 0.00 | 2.64 | 2.62 | 17 | 1022.4 |
| 20260507122005 | 5 | 90 | 4.8 | 16.1 | 0.00 | 2.64 | 2.62 | 17 | 1022.5 |
| 20260507115005 | 5 | 90 | 9.7 | 16.1 | 0.00 | 2.64 | 2.62 | 17 | 1022.5 |
| 20260507114005 | 6 | 90 | 9.7 | 12.9 | 0.00 | 2.64 | 2.62 | 17 | 1022.5 |
| 20260507113006 | 6 | 90 | 8.0 | 12.9 | 0.00 | 2.64 | 2.62 | 17 | 1022.4 |
| 20260507111007 | 7 | 90 | 11.3 | 16.1 | 0.00 | 2.64 | 2.62 | 17 | 1022.4 |
| 20260507104006 | 7 | 45 | 6.4 | 19.3 | 0.00 | 2.64 | 2.62 | 17 | 1022.5 |
| 20260507103005 | 7 | 180 | 11.3 | 22.5 | 0.00 | 2.64 | 2.62 | 17 | 1023.0 |